Date String (YYYY-MM-DD hh:mm:ss) UTC,Instrument flags,Ambient pressure (hPa),Sample flow (lpm),Bypass flow (lpm),Sample temperature (°C),Ambient temperature (°C),ASC tube jacket temperature (°C),LED temperature (°C),Box temperature (°C),Sample RH (%),Span deviation,Mass concentration (μg/m³),Mass concentration (μg/m³),Mass concentration (μg/m³)
DateTimeUTC,F1_M11,P_M11,Q1_M11,Q2_M11,T1_M11,T2_M11,T3_M11,T4_M11,T5_M11,U1_M11,ZSPAN_M11,X2_M11,X0_M11,X1_M11
2023-01-25 13:00:00,,0825.4,5.01,0.00,22.3,20.8,00.0,31.1,24.0,06.9,-002.0,0006.74,0009.93,0006.49
2023-01-25 13:01:00,,0825.5,5.01,0.00,22.3,20.7,00.0,31.1,24.0,07.0,-001.8,0006.62,0009.75,0006.37
2023-01-25 13:02:00,,0825.5,5.01,0.00,22.2,20.6,00.0,31.1,23.9,06.6,-001.3,0006.41,0009.46,0006.17
2023-01-25 13:03:00,,0825.4,5.00,0.00,22.2,20.6,00.0,31.1,23.9,06.5,-001.1,0006.16,0009.44,0005.93
2023-01-25 13:04:00,,0825.5,5.00,0.00,22.2,20.6,00.0,31.1,23.9,06.5,-001.1,0005.89,0009.22,0005.67
2023-01-25 13:05:00,,0825.5,5.02,0.00,22.2,20.9,00.0,31.0,24.0,06.7,-001.0,0005.67,0008.97,0005.44
2023-01-25 13:06:00,,0825.5,4.99,0.00,22.3,21.9,00.0,31.0,24.1,06.9,-000.7,0005.63,0008.92,0005.39
2023-01-25 13:07:00,,0825.5,5.01,0.00,22.4,22.9,00.0,31.1,24.4,06.8,-000.1,0005.55,0008.84,0005.32
2023-01-25 13:08:00,,0825.5,4.97,0.00,22.5,22.9,00.0,31.1,24.5,06.7,-000.4,0005.48,0008.71,0005.26
2023-01-25 13:09:00,,0825.5,5.00,0.00,22.5,22.5,00.0,31.1,24.5,06.7,-000.6,0005.47,0008.63,0005.25
2023-01-25 13:10:00,,0825.5,5.00,0.00,22.5,22.1,00.0,31.2,24.4,06.8,-000.4,0005.48,0008.66,0005.25
2023-01-25 13:11:00,,0825.6,5.00,0.00,22.5,21.8,00.0,31.2,24.3,06.8,-000.1,0005.50,0008.64,0005.26
2023-01-25 13:12:00,,0825.6,5.00,0.00,22.5,21.5,00.0,31.2,24.3,06.9,-000.4,0005.49,0008.67,0005.25
2023-01-25 13:13:00,,0825.6,5.00,0.00,22.5,21.3,00.0,31.2,24.2,07.0,-000.5,0005.59,0008.79,0005.35
2023-01-25 13:14:00,,0825.6,5.02,0.00,22.5,21.2,00.0,31.2,24.2,06.9,-000.5,0005.66,0008.57,0005.44
2023-01-25 13:15:00,,0825.6,5.00,0.00,22.5,21.1,00.0,31.2,24.2,06.9,-000.9,0005.75,0008.62,0005.51
2023-01-25 13:16:00,,0825.6,4.99,0.00,22.4,21.0,00.0,31.2,24.2,06.7,-001.2,0005.75,0008.63,0005.51
2023-01-25 13:17:00,,0825.6,5.00,0.00,22.4,20.9,00.0,31.2,24.2,06.7,-001.7,0005.60,0008.48,0005.38
2023-01-25 13:18:00,,0825.6,5.00,0.00,22.4,20.9,00.0,31.2,24.1,06.6,-002.1,0005.45,0008.35,0005.23
2023-01-25 13:19:00,,0825.7,5.00,0.00,22.4,20.8,00.0,31.2,24.1,06.6,-002.0,0005.32,0008.22,0005.08
2023-01-25 13:20:00,,0825.6,5.00,0.00,22.4,20.8,00.0,31.2,24.1,06.6,-001.7,0005.16,0008.04,0004.92
2023-01-25 13:21:00,,0825.7,5.00,0.00,22.4,20.8,00.0,31.2,24.1,06.6,-001.5,0004.95,0007.83,0004.72
2023-01-25 13:22:00,,0825.7,5.01,0.00,22.4,21.6,00.0,31.2,24.2,06.8,-001.7,0004.79,0007.69,0004.56
2023-01-25 13:23:00,,0825.7,5.00,0.00,22.5,22.5,00.0,31.2,24.4,06.9,-001.6,0004.68,0007.85,0004.43
2023-01-25 13:24:00,,0825.7,5.00,0.00,22.6,23.1,00.0,31.2,24.6,06.8,-001.5,0004.57,0008.30,0004.29
2023-01-25 13:25:00,,0825.7,5.00,0.00,22.7,22.7,00.0,31.3,24.6,06.8,-001.3,0004.47,0009.01,0004.19
2023-01-25 13:26:00,,0825.7,5.02,0.00,22.7,22.3,00.0,31.3,24.6,06.9,-001.2,0004.38,0009.38,0004.10
2023-01-25 13:27:00,,0825.7,5.00,0.00,22.7,21.9,00.0,31.3,24.5,06.9,-001.3,0004.34,0009.36,0004.06
2023-01-25 13:28:00,,0825.7,5.00,0.00,22.6,21.6,00.0,31.3,24.4,06.8,-001.1,0004.29,0009.30,0004.02
2023-01-25 13:29:00,,0825.8,4.99,0.00,22.6,21.4,00.0,31.3,24.3,06.7,-001.4,0004.27,0009.27,0003.99
2023-01-25 13:30:00,,0825.7,4.98,0.00,22.6,21.2,00.0,31.3,24.3,06.6,-001.4,0004.27,0009.28,0003.99
2023-01-25 13:31:00,,0825.6,5.01,0.00,22.6,21.1,00.0,31.3,24.3,06.5,-001.3,0004.26,0009.26,0003.98
2023-01-25 13:32:00,,0825.6,5.00,0.00,22.6,21.1,00.0,31.3,24.3,06.5,-001.4,0004.26,0009.20,0003.97
2023-01-25 13:33:00,,0825.7,4.97,0.00,22.5,21.0,00.0,31.3,24.3,06.4,-001.5,0004.22,0009.27,0003.93
2023-01-25 13:34:00,,0825.7,4.99,0.00,22.5,21.0,00.0,31.3,24.2,06.4,-001.3,0004.09,0008.80,0003.83
2023-01-25 13:35:00,,0825.7,5.02,0.00,22.5,20.9,00.0,31.3,24.2,06.4,-001.6,0004.04,0008.23,0003.75
2023-01-25 13:36:00,,0825.7,5.01,0.00,22.5,20.9,00.0,31.3,24.2,06.5,-001.9,0003.99,0007.63,0003.68
2023-01-25 13:37:00,,0825.7,5.00,0.00,22.5,20.9,00.0,31.3,24.2,06.6,-000.7,0003.93,0006.98,0003.60
2023-01-25 13:38:00,,0825.7,4.99,0.00,22.5,20.9,00.0,31.3,24.2,06.7,0000.0,0003.91,0007.14,0003.59
2023-01-25 13:39:00,,0826.0,5.00,0.00,22.5,20.8,00.0,31.3,24.2,06.7,0000.0,0003.94,0007.92,0003.61
2023-01-25 13:40:00,,0825.7,5.01,0.00,22.4,20.9,00.0,31.3,24.1,06.7,0000.0,0003.99,0008.03,0003.66
2023-01-25 13:41:00,,0826.0,5.00,0.00,22.5,21.4,00.0,31.3,24.2,07.1,-000.0,0004.19,0008.26,0003.84
2023-01-25 13:42:00,,0825.8,4.99,0.00,22.6,22.4,00.0,31.3,24.4,07.2,-000.9,0004.46,0008.59,0004.11
2023-01-25 13:43:00,,0825.8,5.00,0.00,22.6,22.7,00.0,31.3,24.6,07.2,-001.1,0004.72,0008.93,0004.38
2023-01-25 13:44:00,,0825.8,4.99,0.00,22.7,22.4,00.0,31.3,24.6,07.3,-001.2,0005.03,0009.21,0004.69
2023-01-25 13:45:00,,0825.9,5.01,0.00,22.7,22.1,00.0,31.3,24.5,07.3,-001.3,0005.38,0009.81,0005.02
2023-01-25 13:46:00,,0825.8,4.99,0.00,22.6,21.8,00.0,31.3,24.4,07.3,-001.4,0005.67,0010.18,0005.34
2023-01-25 13:47:00,,0825.8,5.00,0.00,22.6,21.6,00.0,31.3,24.4,07.3,-001.6,0005.98,0010.36,0005.66
2023-01-25 13:48:00,,0825.8,4.99,0.00,22.6,21.4,00.0,31.3,24.4,07.2,-001.4,0006.25,0010.56,0005.95
2023-01-25 13:49:00,,0825.9,5.01,0.00,22.6,21.3,00.0,31.3,24.3,07.2,-001.4,0006.52,0010.67,0006.19
2023-01-25 13:50:00,,0825.9,5.00,0.00,22.6,21.1,00.0,31.3,24.3,07.2,-001.1,0006.76,0010.40,0006.42
2023-01-25 13:51:00,,0825.9,4.98,0.00,22.6,20.9,00.0,31.3,24.3,07.1,-000.9,0006.96,0010.58,0006.63
2023-01-25 13:52:00,,0825.9,5.00,0.00,22.5,20.8,00.0,31.3,24.2,07.1,-000.9,0006.98,0010.96,0006.66
2023-01-25 13:53:00,,0826.0,5.00,0.00,22.5,20.8,00.0,31.3,24.2,07.0,-000.7,0006.95,0011.30,0006.63
2023-01-25 13:54:00,,0826.0,4.99,0.00,22.5,20.8,00.0,31.3,24.2,06.8,-000.6,0006.86,0011.15,0006.54
2023-01-25 13:55:00,,0826.0,4.99,0.00,22.5,20.9,00.0,31.3,24.2,06.8,-000.6,0006.74,0010.95,0006.43
2023-01-25 13:56:00,,0826.0,4.99,0.00,22.5,20.9,00.0,31.3,24.2,06.7,-000.7,0006.55,0010.57,0006.27
2023-01-25 13:57:00,,0826.0,5.01,0.00,22.5,20.9,00.0,31.3,24.2,06.6,-000.6,0006.34,0010.18,0006.06
2023-01-25 13:58:00,,0826.1,4.99,0.00,22.5,21.3,00.0,31.3,24.2,06.6,-000.5,0006.16,0009.91,0005.88
2023-01-25 13:59:00,,0826.1,5.01,0.00,22.6,22.4,00.0,31.3,24.5,06.6,-000.7,0005.99,0009.70,0005.72
